Fairfield, IL

9:37 AM CST on December 09, 2019 (GMT -0600)
Fairfield Municipal

Weather History for KFWC - October, 2019

Change the Weather History Date:

Wednesday, October 2, 2019

  Actual Average (KEVV) Record (KEVV)
Temperature  
Mean Temperature 80 °F -  
Max Temperature 92 °F 74 °F 94 °F (1953)
Min Temperature 67 °F 48 °F 33 °F (1974)
Cooling Degree Days 14    
Growing Degree Days 30 (Base 50)    
Moisture  
Dew Point 67 °F    
Average Humidity 72    
Maximum Humidity 100    
Minimum Humidity 41    
Precipitation  
Precipitation 0.00 in - - ()
Sea Level Pressure  
Sea Level Pressure 29.95 in    
Wind  
Wind Speed 1 mph ()    
Max Wind Speed 7 mph    
Max Gust Speed -    
Visibility 10.0 miles    
Events      
Averages and records for this station are not official NWS values.
T = Trace of Precipitation, MM = Missing Value Source: Averaged Metar Reports

Daily Weather History Graph

Daily Weather History Graph

Search for Another Location

Airport or City:

Astronomy

Oct. 02, 2019 Rise Set
Actual Time 6:50 AM CDT 6:35 PM CDT
Civil Twilight 6:23 AM CDT 7:01 PM CDT
Nautical Twilight 5:53 AM CDT 7:32 PM CDT
Astronomical Twilight 5:22 AM CDT 8:03 PM CDT
Moon 11:12 AM CDT (10/2) 9:32 PM CDT (10/2)
Length of Visible Light 12h 37m
Length of Day
11h 45m
Waxing Crescent, 20% of the Moon is Illuminated
Oct 2
Waxing Crescent
Oct 5
First Quarter
Oct 13
Full
Oct 21
Last Quarter
Oct 27
New

Hourly Weather History & Observations

Time (CDT) Temp. Heat Index Dew Point Humidity Pressure Visibility Wind Dir Wind Speed Gust Speed Precip Events Conditions
12:15 AM 73.4 °F - 66.6 °F 79% 29.95 in 10.0 mi Calm Calm - N/A   Clear
12:35 AM 73.4 °F - 66.7 °F 80% 29.95 in 10.0 mi Calm Calm - N/A   Clear
12:55 AM 72.7 °F - 66.6 °F 81% 29.95 in 10.0 mi Calm Calm - N/A   Clear
1:15 AM 72.0 °F - 66.7 °F 84% 29.95 in 10.0 mi Calm Calm - N/A   Clear
1:35 AM 70.5 °F - 66.6 °F 87% 29.95 in 10.0 mi Calm Calm - N/A   Clear
1:55 AM 70.2 °F - 66.7 °F 89% 29.95 in 10.0 mi Calm Calm - N/A   Clear
2:15 AM 69.4 °F - 66.9 °F 92% 29.94 in 10.0 mi Calm Calm - N/A   Clear
2:55 AM 70.3 °F - 66.7 °F 88% 29.94 in 10.0 mi Calm Calm - N/A   Clear
3:15 AM 70.9 °F - 66.7 °F 87% 29.94 in 10.0 mi Calm Calm - N/A   Clear
3:35 AM 69.4 °F - 66.6 °F 91% 29.94 in 10.0 mi Calm Calm - N/A   Clear
3:55 AM 68.7 °F - 67.5 °F 96% 29.94 in 10.0 mi Calm Calm - N/A   Clear
4:15 AM 69.6 °F - 67.3 °F 92% 29.94 in 10.0 mi Calm Calm - N/A   Clear
4:35 AM 69.3 °F - 67.5 °F 94% 29.94 in 10.0 mi Calm Calm - N/A   Clear
4:55 AM 68.9 °F - 67.5 °F 95% 29.94 in 10.0 mi Calm Calm - N/A   Clear
5:15 AM 68.0 °F - 67.5 °F 98% 29.95 in 10.0 mi Calm Calm - N/A   Clear
5:35 AM 68.0 °F - 67.3 °F 98% 29.96 in 10.0 mi Calm Calm - N/A   Clear
5:55 AM 68.0 °F - 67.5 °F 98% 29.96 in 10.0 mi Calm Calm - N/A   Clear
6:15 AM 67.3 °F - 67.3 °F 100% 29.97 in 10.0 mi Calm Calm - N/A   Clear
6:35 AM 68.2 °F - 68.0 °F 99% 29.98 in 10.0 mi South 4.6 mph - N/A   Clear
6:55 AM 68.2 °F - 67.5 °F 98% 29.99 in 10.0 mi Calm Calm - N/A   Clear
7:15 AM 68.2 °F - 67.5 °F 98% 29.99 in 10.0 mi Calm Calm - N/A   Clear
7:35 AM 70.3 °F - 67.5 °F 91% 29.99 in 10.0 mi Calm Calm - N/A   Clear
7:55 AM 71.6 °F - 68.2 °F 89% 29.99 in 10.0 mi Calm Calm - N/A   Clear
8:15 AM 73.2 °F - 68.5 °F 85% 29.99 in 10.0 mi Calm Calm - N/A   Clear
8:35 AM 74.8 °F - 67.8 °F 79% 29.99 in 10.0 mi Calm Calm - N/A   Clear
8:55 AM 76.6 °F - 68.7 °F 76% 30.00 in 10.0 mi Calm Calm - N/A   Clear
9:15 AM 79.3 °F - 68.9 °F 70% 30.00 in 10.0 mi SSW 3.5 mph - N/A   Clear
9:35 AM 81.1 °F 84.0 °F 68.4 °F 65% 30.00 in 10.0 mi SW 3.5 mph - N/A   Clear
9:55 AM 83.3 °F 86.4 °F 68.0 °F 60% 30.00 in 10.0 mi SW 3.5 mph - N/A   Clear
10:15 AM 84.2 °F 87.3 °F 68.2 °F 58% 30.00 in 10.0 mi SW 5.8 mph - N/A   Clear
10:35 AM 85.8 °F 88.8 °F 67.6 °F 54% 30.00 in 10.0 mi West 4.6 mph - N/A   Clear
10:55 AM 87.3 °F 90.2 °F 67.3 °F 51% 30.00 in 10.0 mi WSW 5.8 mph - N/A   Clear
11:15 AM 88.0 °F 90.7 °F 66.7 °F 49% 30.00 in 10.0 mi WSW 4.6 mph - N/A   Scattered Clouds
11:35 AM 88.9 °F 91.4 °F 66.6 °F 47% 29.99 in 10.0 mi SW 5.8 mph - N/A   Scattered Clouds
11:55 AM 89.4 °F 91.9 °F 66.2 °F 46% 29.99 in 10.0 mi West 6.9 mph - N/A   Scattered Clouds
12:15 PM 89.8 °F 92.1 °F 66.0 °F 45% 29.98 in 10.0 mi WNW 4.6 mph - N/A   Mostly Cloudy
12:35 PM 88.2 °F 90.6 °F 66.2 °F 48% 29.97 in 10.0 mi West 3.5 mph - N/A   Scattered Clouds
12:55 PM 90.5 °F 94.2 °F 67.6 °F 47% 29.96 in 10.0 mi Calm Calm - N/A   Scattered Clouds
1:15 PM 90.5 °F 93.3 °F 66.7 °F 45% 29.95 in 10.0 mi West 3.5 mph - N/A   Clear
1:35 PM 91.0 °F 93.8 °F 66.4 °F 44% 29.94 in 10.0 mi Calm Calm - N/A   Clear
1:55 PM 90.9 °F 94.0 °F 66.6 °F 45% 29.94 in 10.0 mi West 3.5 mph - N/A   Clear
2:15 PM 91.0 °F 93.8 °F 66.4 °F 44% 29.92 in 10.0 mi SW 3.5 mph - N/A   Clear
2:35 PM 91.6 °F 94.3 °F 66.4 °F 43% 29.92 in 10.0 mi West 3.5 mph - N/A   Clear
2:55 PM 91.4 °F 94.5 °F 66.4 °F 44% 29.91 in 10.0 mi Calm Calm - N/A   Clear
3:15 PM 91.4 °F 94.0 °F 65.8 °F 43% 29.91 in 10.0 mi Calm Calm - N/A   Clear
3:35 PM 91.8 °F 94.6 °F 66.0 °F 43% 29.91 in 10.0 mi Calm Calm - N/A   Clear
3:55 PM 92.1 °F 94.4 °F 65.3 °F 41% 29.90 in 10.0 mi West 3.5 mph - N/A   Clear
4:15 PM 91.9 °F 94.1 °F 64.9 °F 41% 29.90 in 10.0 mi Calm Calm - N/A   Clear
4:35 PM 92.1 °F 94.4 °F 65.3 °F 41% 29.90 in 10.0 mi Calm Calm - N/A   Clear
4:55 PM 91.2 °F 92.9 °F 64.2 °F 41% 29.90 in 10.0 mi Calm Calm - N/A   Scattered Clouds
5:15 PM 90.9 °F 92.3 °F 64.2 °F 41% 29.90 in 10.0 mi Calm Calm - N/A   Clear
5:35 PM 89.6 °F 91.8 °F 65.5 °F 45% 29.91 in 10.0 mi Calm Calm - N/A   Clear
5:55 PM 86.7 °F 89.6 °F 67.1 °F 52% 29.91 in 10.0 mi Calm Calm - N/A   Scattered Clouds
6:15 PM 82.8 °F 86.0 °F 68.7 °F 62% 29.91 in 10.0 mi Calm Calm - N/A   Scattered Clouds
6:35 PM 84.2 °F 86.6 °F 66.2 °F 55% 29.91 in 10.0 mi Calm Calm - N/A   Scattered Clouds
6:55 PM 83.5 °F 85.3 °F 65.3 °F 54% 29.92 in 10.0 mi Calm Calm - N/A   Clear
7:15 PM 76.1 °F - 68.0 °F 76% 29.92 in 10.0 mi Calm Calm - N/A   Clear
7:35 PM 74.8 °F - 67.3 °F 77% 29.92 in 10.0 mi Calm Calm - N/A   Clear
7:55 PM 73.4 °F - 67.1 °F 81% 29.92 in 10.0 mi Calm Calm - N/A   Clear
8:15 PM 72.5 °F - 67.3 °F 84% 29.92 in 10.0 mi Calm Calm - N/A   Clear
8:35 PM 71.8 °F - 67.6 °F 87% 29.91 in 10.0 mi Calm Calm - N/A   Clear
8:55 PM 71.1 °F - 68.7 °F 92% 29.91 in 10.0 mi Calm Calm - N/A   Clear
9:15 PM 71.1 °F - 68.7 °F 92% 29.92 in 10.0 mi Calm Calm - N/A   Clear
9:35 PM 71.4 °F - 68.7 °F 91% 29.91 in 10.0 mi Calm Calm - N/A   Clear
9:55 PM 70.3 °F - 67.8 °F 92% 29.91 in 10.0 mi Calm Calm - N/A   Clear
10:15 PM 73.8 °F - 65.1 °F 74% 29.92 in 10.0 mi Calm Calm - N/A   Clear
10:35 PM 74.7 °F - 64.8 °F 71% 29.93 in 10.0 mi Calm Calm - N/A   Clear
10:55 PM 73.9 °F - 64.8 °F 73% 29.94 in 10.0 mi Calm Calm - N/A   Clear
11:15 PM 69.6 °F - 67.1 °F 92% 29.94 in 10.0 mi Calm Calm - N/A   Clear
11:35 PM 68.5 °F - 67.1 °F 95% 29.94 in 10.0 mi Calm Calm - N/A   Clear
11:55 PM 68.2 °F - 67.8 °F 99% 29.95 in 10.0 mi Calm Calm - N/A   Clear